Index of /20260504/WXO-DD/model_rdps/10km/00/006
Name Last modified Size Description
Parent Directory -
20260504T00Z_MSC_RDPS_AbsoluteVorticity_IsbL-0250_RLatLon0.09_PT006H.grib2 2026-05-04 02:42 620K
20260504T00Z_MSC_RDPS_AbsoluteVorticity_IsbL-0500_RLatLon0.09_PT006H.grib2 2026-05-04 02:42 562K
20260504T00Z_MSC_RDPS_AbsoluteVorticity_IsbL-0700_RLatLon0.09_PT006H.grib2 2026-05-04 02:42 616K
20260504T00Z_MSC_RDPS_AbsoluteVorticity_IsbL-0850_RLatLon0.09_PT006H.grib2 2026-05-04 02:42 788K
20260504T00Z_MSC_RDPS_AirTemp_AGL-120m_RLatLon0.09_PT006H.grib2 2026-05-04 02:42 371K
20260504T00Z_MSC_RDPS_AirTemp_AGL-2m_RLatLon0.09_PT006H.grib2 2026-05-04 02:42 625K
20260504T00Z_MSC_RDPS_AirTemp_AGL-40m_RLatLon0.09_PT006H.grib2 2026-05-04 02:42 403K
20260504T00Z_MSC_RDPS_AirTemp_AGL-80m_RLatLon0.09_PT006H.grib2 2026-05-04 02:42 378K
20260504T00Z_MSC_RDPS_AirTemp_IsbL-0001_RLatLon0.09_PT006H.grib2 2026-05-04 02:42 294K
20260504T00Z_MSC_RDPS_AirTemp_IsbL-0005_RLatLon0.09_PT006H.grib2 2026-05-04 02:42 276K
20260504T00Z_MSC_RDPS_AirTemp_IsbL-0010_RLatLon0.09_PT006H.grib2 2026-05-04 02:42 286K
20260504T00Z_MSC_RDPS_AirTemp_IsbL-0020_RLatLon0.09_PT006H.grib2 2026-05-04 02:42 394K
20260504T00Z_MSC_RDPS_AirTemp_IsbL-0030_RLatLon0.09_PT006H.grib2 2026-05-04 02:42 323K
20260504T00Z_MSC_RDPS_AirTemp_IsbL-0050_RLatLon0.09_PT006H.grib2 2026-05-04 02:42 306K
20260504T00Z_MSC_RDPS_AirTemp_IsbL-0100_RLatLon0.09_PT006H.grib2 2026-05-04 02:42 419K
20260504T00Z_MSC_RDPS_AirTemp_IsbL-0150_RLatLon0.09_PT006H.grib2 2026-05-04 02:42 414K
20260504T00Z_MSC_RDPS_AirTemp_IsbL-0175_RLatLon0.09_PT006H.grib2 2026-05-04 02:42 406K
20260504T00Z_MSC_RDPS_AirTemp_IsbL-0200_RLatLon0.09_PT006H.grib2 2026-05-04 02:42 413K
20260504T00Z_MSC_RDPS_AirTemp_IsbL-0225_RLatLon0.09_PT006H.grib2 2026-05-04 02:42 420K
20260504T00Z_MSC_RDPS_AirTemp_IsbL-0250_RLatLon0.09_PT006H.grib2 2026-05-04 02:42 426K
20260504T00Z_MSC_RDPS_AirTemp_IsbL-0275_RLatLon0.09_PT006H.grib2 2026-05-04 02:42 405K
20260504T00Z_MSC_RDPS_AirTemp_IsbL-0300_RLatLon0.09_PT006H.grib2 2026-05-04 02:42 410K
20260504T00Z_MSC_RDPS_AirTemp_IsbL-0350_RLatLon0.09_PT006H.grib2 2026-05-04 02:42 427K
20260504T00Z_MSC_RDPS_AirTemp_IsbL-0400_RLatLon0.09_PT006H.grib2 2026-05-04 02:42 432K
20260504T00Z_MSC_RDPS_AirTemp_IsbL-0450_RLatLon0.09_PT006H.grib2 2026-05-04 02:42 405K
20260504T00Z_MSC_RDPS_AirTemp_IsbL-0500_RLatLon0.09_PT006H.grib2 2026-05-04 02:42 416K
20260504T00Z_MSC_RDPS_AirTemp_IsbL-0550_RLatLon0.09_PT006H.grib2 2026-05-04 02:42 432K
20260504T00Z_MSC_RDPS_AirTemp_IsbL-0600_RLatLon0.09_PT006H.grib2 2026-05-04 02:42 446K
20260504T00Z_MSC_RDPS_AirTemp_IsbL-0650_RLatLon0.09_PT006H.grib2 2026-05-04 02:42 461K
20260504T00Z_MSC_RDPS_AirTemp_IsbL-0700_RLatLon0.09_PT006H.grib2 2026-05-04 02:42 377K
20260504T00Z_MSC_RDPS_AirTemp_IsbL-0750_RLatLon0.09_PT006H.grib2 2026-05-04 02:42 409K
20260504T00Z_MSC_RDPS_AirTemp_IsbL-0800_RLatLon0.09_PT006H.grib2 2026-05-04 02:42 457K
20260504T00Z_MSC_RDPS_AirTemp_IsbL-0850_RLatLon0.09_PT006H.grib2 2026-05-04 02:42 505K
20260504T00Z_MSC_RDPS_AirTemp_IsbL-0875_RLatLon0.09_PT006H.grib2 2026-05-04 02:42 518K
20260504T00Z_MSC_RDPS_AirTemp_IsbL-0900_RLatLon0.09_PT006H.grib2 2026-05-04 02:42 522K
20260504T00Z_MSC_RDPS_AirTemp_IsbL-0925_RLatLon0.09_PT006H.grib2 2026-05-04 02:42 516K
20260504T00Z_MSC_RDPS_AirTemp_IsbL-0950_RLatLon0.09_PT006H.grib2 2026-05-04 02:42 519K
20260504T00Z_MSC_RDPS_AirTemp_IsbL-0970_RLatLon0.09_PT006H.grib2 2026-05-04 02:42 511K
20260504T00Z_MSC_RDPS_AirTemp_IsbL-0985_RLatLon0.09_PT006H.grib2 2026-05-04 02:42 499K
20260504T00Z_MSC_RDPS_AirTemp_IsbL-1000_RLatLon0.09_PT006H.grib2 2026-05-04 02:42 484K
20260504T00Z_MSC_RDPS_AirTemp_IsbL-1015_RLatLon0.09_PT006H.grib2 2026-05-04 02:42 483K
20260504T00Z_MSC_RDPS_Albedo_Sfc_RLatLon0.09_PT006H.grib2 2026-05-04 02:42 156K
20260504T00Z_MSC_RDPS_CAPE_Sfc_RLatLon0.09_PT006H.grib2 2026-05-04 02:42 1.6M
20260504T00Z_MSC_RDPS_CIN_Sfc_RLatLon0.09_PT006H.grib2 2026-05-04 02:42 1.1M
20260504T00Z_MSC_RDPS_CloudWater_EAtm_RLatLon0.09_PT006H.grib2 2026-05-04 02:42 218K
20260504T00Z_MSC_RDPS_ConvectivePrecip-Accum_Sfc_RLatLon0.09_PT006H.grib2 2026-05-04 02:42 494K
20260504T00Z_MSC_RDPS_DewPointDepression_AGL-2m_RLatLon0.09_PT006H.grib2 2026-05-04 02:42 397K
20260504T00Z_MSC_RDPS_DewPointDepression_IsbL-0001_RLatLon0.09_PT006H.grib2 2026-05-04 02:42 193
20260504T00Z_MSC_RDPS_DewPointDepression_IsbL-0005_RLatLon0.09_PT006H.grib2 2026-05-04 02:42 193
20260504T00Z_MSC_RDPS_DewPointDepression_IsbL-0010_RLatLon0.09_PT006H.grib2 2026-05-04 02:42 193
20260504T00Z_MSC_RDPS_DewPointDepression_IsbL-0020_RLatLon0.09_PT006H.grib2 2026-05-04 02:42 193
20260504T00Z_MSC_RDPS_DewPointDepression_IsbL-0030_RLatLon0.09_PT006H.grib2 2026-05-04 02:42 193
20260504T00Z_MSC_RDPS_DewPointDepression_IsbL-0050_RLatLon0.09_PT006H.grib2 2026-05-04 02:42 76K
20260504T00Z_MSC_RDPS_DewPointDepression_IsbL-0100_RLatLon0.09_PT006H.grib2 2026-05-04 02:42 119K
20260504T00Z_MSC_RDPS_DewPointDepression_IsbL-0150_RLatLon0.09_PT006H.grib2 2026-05-04 02:42 145K
20260504T00Z_MSC_RDPS_DewPointDepression_IsbL-0175_RLatLon0.09_PT006H.grib2 2026-05-04 02:42 180K
20260504T00Z_MSC_RDPS_DewPointDepression_IsbL-0200_RLatLon0.09_PT006H.grib2 2026-05-04 02:42 226K
20260504T00Z_MSC_RDPS_DewPointDepression_IsbL-0225_RLatLon0.09_PT006H.grib2 2026-05-04 02:42 268K
20260504T00Z_MSC_RDPS_DewPointDepression_IsbL-0250_RLatLon0.09_PT006H.grib2 2026-05-04 02:42 307K
20260504T00Z_MSC_RDPS_DewPointDepression_IsbL-0275_RLatLon0.09_PT006H.grib2 2026-05-04 02:42 314K
20260504T00Z_MSC_RDPS_DewPointDepression_IsbL-0300_RLatLon0.09_PT006H.grib2 2026-05-04 02:42 328K
20260504T00Z_MSC_RDPS_DewPointDepression_IsbL-0350_RLatLon0.09_PT006H.grib2 2026-05-04 02:42 336K
20260504T00Z_MSC_RDPS_DewPointDepression_IsbL-0400_RLatLon0.09_PT006H.grib2 2026-05-04 02:42 342K
20260504T00Z_MSC_RDPS_DewPointDepression_IsbL-0450_RLatLon0.09_PT006H.grib2 2026-05-04 02:42 342K
20260504T00Z_MSC_RDPS_DewPointDepression_IsbL-0500_RLatLon0.09_PT006H.grib2 2026-05-04 02:42 345K
20260504T00Z_MSC_RDPS_DewPointDepression_IsbL-0550_RLatLon0.09_PT006H.grib2 2026-05-04 02:42 354K
20260504T00Z_MSC_RDPS_DewPointDepression_IsbL-0600_RLatLon0.09_PT006H.grib2 2026-05-04 02:42 364K
20260504T00Z_MSC_RDPS_DewPointDepression_IsbL-0650_RLatLon0.09_PT006H.grib2 2026-05-04 02:42 372K
20260504T00Z_MSC_RDPS_DewPointDepression_IsbL-0700_RLatLon0.09_PT006H.grib2 2026-05-04 02:42 381K
20260504T00Z_MSC_RDPS_DewPointDepression_IsbL-0750_RLatLon0.09_PT006H.grib2 2026-05-04 02:42 399K
20260504T00Z_MSC_RDPS_DewPointDepression_IsbL-0800_RLatLon0.09_PT006H.grib2 2026-05-04 02:42 439K
20260504T00Z_MSC_RDPS_DewPointDepression_IsbL-0850_RLatLon0.09_PT006H.grib2 2026-05-04 02:42 467K
20260504T00Z_MSC_RDPS_DewPointDepression_IsbL-0875_RLatLon0.09_PT006H.grib2 2026-05-04 02:42 464K
20260504T00Z_MSC_RDPS_DewPointDepression_IsbL-0900_RLatLon0.09_PT006H.grib2 2026-05-04 02:42 452K
20260504T00Z_MSC_RDPS_DewPointDepression_IsbL-0925_RLatLon0.09_PT006H.grib2 2026-05-04 02:42 440K
20260504T00Z_MSC_RDPS_DewPointDepression_IsbL-0950_RLatLon0.09_PT006H.grib2 2026-05-04 02:42 438K
20260504T00Z_MSC_RDPS_DewPointDepression_IsbL-0970_RLatLon0.09_PT006H.grib2 2026-05-04 02:42 430K
20260504T00Z_MSC_RDPS_DewPointDepression_IsbL-0985_RLatLon0.09_PT006H.grib2 2026-05-04 02:42 425K
20260504T00Z_MSC_RDPS_DewPointDepression_IsbL-1000_RLatLon0.09_PT006H.grib2 2026-05-04 02:42 421K
20260504T00Z_MSC_RDPS_DewPointDepression_IsbL-1015_RLatLon0.09_PT006H.grib2 2026-05-04 02:42 412K
20260504T00Z_MSC_RDPS_DewPoint_AGL-2m_RLatLon0.09_PT006H.grib2 2026-05-04 02:42 302K
20260504T00Z_MSC_RDPS_DownwardLongwaveRadiationFlux-Accum_Sfc_RLatLon0.09_PT006H.grib2 2026-05-04 02:42 494K
20260504T00Z_MSC_RDPS_DownwardShortwaveRadiationFlux-Accum_NTAtm_RLatLon0.09_PT006H.grib2 2026-05-04 02:42 78K
20260504T00Z_MSC_RDPS_DownwardShortwaveRadiationFlux-Accum_Sfc_RLatLon0.09_PT006H.grib2 2026-05-04 02:42 328K
20260504T00Z_MSC_RDPS_FreezingRain-Accum1h_Sfc_RLatLon0.09_PT006H.grib2 2026-05-04 02:42 29K
20260504T00Z_MSC_RDPS_FreezingRain-Accum3h_Sfc_RLatLon0.09_PT006H.grib2 2026-05-04 02:42 33K
20260504T00Z_MSC_RDPS_FreezingRain-Accum6h_Sfc_RLatLon0.09_PT006H.grib2 2026-05-04 02:42 41K
20260504T00Z_MSC_RDPS_FreezingRain-Accum_Sfc_RLatLon0.09_PT006H.grib2 2026-05-04 02:42 48K
20260504T00Z_MSC_RDPS_GeopotentialHeight_IsbL-0001_RLatLon0.09_PT006H.grib2 2026-05-04 02:42 237K
20260504T00Z_MSC_RDPS_GeopotentialHeight_IsbL-0005_RLatLon0.09_PT006H.grib2 2026-05-04 02:42 334K
20260504T00Z_MSC_RDPS_GeopotentialHeight_IsbL-0010_RLatLon0.09_PT006H.grib2 2026-05-04 02:42 302K
20260504T00Z_MSC_RDPS_GeopotentialHeight_IsbL-0020_RLatLon0.09_PT006H.grib2 2026-05-04 02:42 398K
20260504T00Z_MSC_RDPS_GeopotentialHeight_IsbL-0030_RLatLon0.09_PT006H.grib2 2026-05-04 02:42 400K
20260504T00Z_MSC_RDPS_GeopotentialHeight_IsbL-0050_RLatLon0.09_PT006H.grib2 2026-05-04 02:42 308K
20260504T00Z_MSC_RDPS_GeopotentialHeight_IsbL-0100_RLatLon0.09_PT006H.grib2 2026-05-04 02:42 288K
20260504T00Z_MSC_RDPS_GeopotentialHeight_IsbL-0150_RLatLon0.09_PT006H.grib2 2026-05-04 02:42 230K
20260504T00Z_MSC_RDPS_GeopotentialHeight_IsbL-0175_RLatLon0.09_PT006H.grib2 2026-05-04 02:42 233K
20260504T00Z_MSC_RDPS_GeopotentialHeight_IsbL-0200_RLatLon0.09_PT006H.grib2 2026-05-04 02:42 266K
20260504T00Z_MSC_RDPS_GeopotentialHeight_IsbL-0225_RLatLon0.09_PT006H.grib2 2026-05-04 02:42 267K
20260504T00Z_MSC_RDPS_GeopotentialHeight_IsbL-0250_RLatLon0.09_PT006H.grib2 2026-05-04 02:42 268K
20260504T00Z_MSC_RDPS_GeopotentialHeight_IsbL-0275_RLatLon0.09_PT006H.grib2 2026-05-04 02:42 268K
20260504T00Z_MSC_RDPS_GeopotentialHeight_IsbL-0300_RLatLon0.09_PT006H.grib2 2026-05-04 02:42 238K
20260504T00Z_MSC_RDPS_GeopotentialHeight_IsbL-0350_RLatLon0.09_PT006H.grib2 2026-05-04 02:42 233K
20260504T00Z_MSC_RDPS_GeopotentialHeight_IsbL-0400_RLatLon0.09_PT006H.grib2 2026-05-04 02:42 230K
20260504T00Z_MSC_RDPS_GeopotentialHeight_IsbL-0450_RLatLon0.09_PT006H.grib2 2026-05-04 02:42 299K
20260504T00Z_MSC_RDPS_GeopotentialHeight_IsbL-0500_RLatLon0.09_PT006H.grib2 2026-05-04 02:42 295K
20260504T00Z_MSC_RDPS_GeopotentialHeight_IsbL-0550_RLatLon0.09_PT006H.grib2 2026-05-04 02:42 291K
20260504T00Z_MSC_RDPS_GeopotentialHeight_IsbL-0600_RLatLon0.09_PT006H.grib2 2026-05-04 02:42 286K
20260504T00Z_MSC_RDPS_GeopotentialHeight_IsbL-0650_RLatLon0.09_PT006H.grib2 2026-05-04 02:42 257K
20260504T00Z_MSC_RDPS_GeopotentialHeight_IsbL-0700_RLatLon0.09_PT006H.grib2 2026-05-04 02:42 256K
20260504T00Z_MSC_RDPS_GeopotentialHeight_IsbL-0750_RLatLon0.09_PT006H.grib2 2026-05-04 02:42 258K
20260504T00Z_MSC_RDPS_GeopotentialHeight_IsbL-0800_RLatLon0.09_PT006H.grib2 2026-05-04 02:42 350K
20260504T00Z_MSC_RDPS_GeopotentialHeight_IsbL-0850_RLatLon0.09_PT006H.grib2 2026-05-04 02:42 359K
20260504T00Z_MSC_RDPS_GeopotentialHeight_IsbL-0875_RLatLon0.09_PT006H.grib2 2026-05-04 02:42 359K
20260504T00Z_MSC_RDPS_GeopotentialHeight_IsbL-0900_RLatLon0.09_PT006H.grib2 2026-05-04 02:42 364K
20260504T00Z_MSC_RDPS_GeopotentialHeight_IsbL-0925_RLatLon0.09_PT006H.grib2 2026-05-04 02:42 279K
20260504T00Z_MSC_RDPS_GeopotentialHeight_IsbL-0950_RLatLon0.09_PT006H.grib2 2026-05-04 02:42 283K
20260504T00Z_MSC_RDPS_GeopotentialHeight_IsbL-0970_RLatLon0.09_PT006H.grib2 2026-05-04 02:42 287K
20260504T00Z_MSC_RDPS_GeopotentialHeight_IsbL-0985_RLatLon0.09_PT006H.grib2 2026-05-04 02:42 293K
20260504T00Z_MSC_RDPS_GeopotentialHeight_IsbL-1000_RLatLon0.09_PT006H.grib2 2026-05-04 02:42 301K
20260504T00Z_MSC_RDPS_GeopotentialHeight_IsbL-1015_RLatLon0.09_PT006H.grib2 2026-05-04 02:42 312K
20260504T00Z_MSC_RDPS_Humidex_Sfc_RLatLon0.09_PT006H.grib2 2026-05-04 02:42 2.2M
20260504T00Z_MSC_RDPS_IcePellets-Accum1h_Sfc_RLatLon0.09_PT006H.grib2 2026-05-04 02:42 2.4K
20260504T00Z_MSC_RDPS_IcePellets-Accum3h_Sfc_RLatLon0.09_PT006H.grib2 2026-05-04 02:42 2.6K
20260504T00Z_MSC_RDPS_IcePellets-Accum6h_Sfc_RLatLon0.09_PT006H.grib2 2026-05-04 02:42 3.5K
20260504T00Z_MSC_RDPS_IcePellets-Accum_Sfc_RLatLon0.09_PT006H.grib2 2026-05-04 02:42 3.7K
20260504T00Z_MSC_RDPS_KIndex_Sfc_RLatLon0.09_PT006H.grib2 2026-05-04 02:42 2.4M
20260504T00Z_MSC_RDPS_LatentHeatNetFlux_Sfc_RLatLon0.09_PT006H.grib2 2026-05-04 02:42 410K
20260504T00Z_MSC_RDPS_LiftedIndex-MU-VT_IsbL-0500_RLatLon0.09_PT006H.grib2 2026-05-04 02:42 2.4M
20260504T00Z_MSC_RDPS_NetLongwaveRadiationFlux-Accum_Sfc_RLatLon0.09_PT006H.grib2 2026-05-04 02:42 543K
20260504T00Z_MSC_RDPS_NetShortwaveRadiationFlux-Accum_Sfc_RLatLon0.09_PT006H.grib2 2026-05-04 02:42 303K
20260504T00Z_MSC_RDPS_PlanetaryBoundaryLayerHeight_Sfc_RLatLon0.09_PT006H.grib2 2026-05-04 02:42 1.1M
20260504T00Z_MSC_RDPS_Precip-Accum1h_Sfc_RLatLon0.09_PT006H.grib2 2026-05-04 02:42 1.2M
20260504T00Z_MSC_RDPS_Precip-Accum3h_Sfc_RLatLon0.09_PT006H.grib2 2026-05-04 02:42 1.3M
20260504T00Z_MSC_RDPS_Precip-Accum6h_Sfc_RLatLon0.09_PT006H.grib2 2026-05-04 02:42 1.5M
20260504T00Z_MSC_RDPS_Precip-Accum_Sfc_RLatLon0.09_PT006H.grib2 2026-05-04 02:42 1.5M
20260504T00Z_MSC_RDPS_PrecipRate_Sfc_RLatLon0.09_PT006H.grib2 2026-05-04 02:42 176K
20260504T00Z_MSC_RDPS_PrecipType-Instant_Sfc_RLatLon0.09_PT006H.grib2 2026-05-04 02:42 588K
20260504T00Z_MSC_RDPS_Pressure-Trend3h_Sfc_RLatLon0.09_PT006H.grib2 2026-05-04 02:42 1.2M
20260504T00Z_MSC_RDPS_Pressure_MSL_RLatLon0.09_PT006H.grib2 2026-05-04 02:42 326K
20260504T00Z_MSC_RDPS_Pressure_PVU-1.5_RLatLon0.09_PT006H.grib2 2026-05-04 02:42 2.3M
20260504T00Z_MSC_RDPS_Pressure_PVU-1_RLatLon0.09_PT006H.grib2 2026-05-04 02:42 2.4M
20260504T00Z_MSC_RDPS_Pressure_PVU-2_RLatLon0.09_PT006H.grib2 2026-05-04 02:42 2.4M
20260504T00Z_MSC_RDPS_Pressure_Sfc_RLatLon0.09_PT006H.grib2 2026-05-04 02:42 499K
20260504T00Z_MSC_RDPS_RadiativeTemp_Sfc_RLatLon0.09_PT006H.grib2 2026-05-04 02:42 298K
20260504T00Z_MSC_RDPS_Rain-Accum1h_Sfc_RLatLon0.09_PT006H.grib2 2026-05-04 02:42 615K
20260504T00Z_MSC_RDPS_Rain-Accum3h_Sfc_RLatLon0.09_PT006H.grib2 2026-05-04 02:42 690K
20260504T00Z_MSC_RDPS_Rain-Accum6h_Sfc_RLatLon0.09_PT006H.grib2 2026-05-04 02:42 1.0M
20260504T00Z_MSC_RDPS_Rain-Accum_Sfc_RLatLon0.09_PT006H.grib2 2026-05-04 02:42 1.1M
20260504T00Z_MSC_RDPS_RelativeHumidity_AGL-2m_RLatLon0.09_PT006H.grib2 2026-05-04 02:42 1.0M
20260504T00Z_MSC_RDPS_RelativeHumidity_IsbL-0010_RLatLon0.09_PT006H.grib2 2026-05-04 02:42 626K
20260504T00Z_MSC_RDPS_RelativeHumidity_IsbL-0020_RLatLon0.09_PT006H.grib2 2026-05-04 02:42 672K
20260504T00Z_MSC_RDPS_RelativeHumidity_IsbL-0030_RLatLon0.09_PT006H.grib2 2026-05-04 02:42 600K
20260504T00Z_MSC_RDPS_RelativeHumidity_IsbL-0050_RLatLon0.09_PT006H.grib2 2026-05-04 02:42 305K
20260504T00Z_MSC_RDPS_RelativeHumidity_IsbL-0100_RLatLon0.09_PT006H.grib2 2026-05-04 02:42 277K
20260504T00Z_MSC_RDPS_RelativeHumidity_IsbL-0150_RLatLon0.09_PT006H.grib2 2026-05-04 02:42 414K
20260504T00Z_MSC_RDPS_RelativeHumidity_IsbL-0175_RLatLon0.09_PT006H.grib2 2026-05-04 02:42 475K
20260504T00Z_MSC_RDPS_RelativeHumidity_IsbL-0200_RLatLon0.09_PT006H.grib2 2026-05-04 02:42 554K
20260504T00Z_MSC_RDPS_RelativeHumidity_IsbL-0225_RLatLon0.09_PT006H.grib2 2026-05-04 02:42 626K
20260504T00Z_MSC_RDPS_RelativeHumidity_IsbL-0250_RLatLon0.09_PT006H.grib2 2026-05-04 02:42 697K
20260504T00Z_MSC_RDPS_RelativeHumidity_IsbL-0275_RLatLon0.09_PT006H.grib2 2026-05-04 02:42 720K
20260504T00Z_MSC_RDPS_RelativeHumidity_IsbL-0300_RLatLon0.09_PT006H.grib2 2026-05-04 02:42 753K
20260504T00Z_MSC_RDPS_RelativeHumidity_IsbL-0350_RLatLon0.09_PT006H.grib2 2026-05-04 02:42 775K
20260504T00Z_MSC_RDPS_RelativeHumidity_IsbL-0400_RLatLon0.09_PT006H.grib2 2026-05-04 02:42 787K
20260504T00Z_MSC_RDPS_RelativeHumidity_IsbL-0450_RLatLon0.09_PT006H.grib2 2026-05-04 02:42 784K
20260504T00Z_MSC_RDPS_RelativeHumidity_IsbL-0500_RLatLon0.09_PT006H.grib2 2026-05-04 02:42 799K
20260504T00Z_MSC_RDPS_RelativeHumidity_IsbL-0550_RLatLon0.09_PT006H.grib2 2026-05-04 02:42 816K
20260504T00Z_MSC_RDPS_RelativeHumidity_IsbL-0600_RLatLon0.09_PT006H.grib2 2026-05-04 02:42 836K
20260504T00Z_MSC_RDPS_RelativeHumidity_IsbL-0650_RLatLon0.09_PT006H.grib2 2026-05-04 02:42 849K
20260504T00Z_MSC_RDPS_RelativeHumidity_IsbL-0700_RLatLon0.09_PT006H.grib2 2026-05-04 02:42 869K
20260504T00Z_MSC_RDPS_RelativeHumidity_IsbL-0750_RLatLon0.09_PT006H.grib2 2026-05-04 02:42 908K
20260504T00Z_MSC_RDPS_RelativeHumidity_IsbL-0800_RLatLon0.09_PT006H.grib2 2026-05-04 02:42 1.0M
20260504T00Z_MSC_RDPS_RelativeHumidity_IsbL-0850_RLatLon0.09_PT006H.grib2 2026-05-04 02:42 1.0M
20260504T00Z_MSC_RDPS_RelativeHumidity_IsbL-0875_RLatLon0.09_PT006H.grib2 2026-05-04 02:42 1.0M
20260504T00Z_MSC_RDPS_RelativeHumidity_IsbL-0900_RLatLon0.09_PT006H.grib2 2026-05-04 02:42 1.1M
20260504T00Z_MSC_RDPS_RelativeHumidity_IsbL-0925_RLatLon0.09_PT006H.grib2 2026-05-04 02:42 1.0M
20260504T00Z_MSC_RDPS_RelativeHumidity_IsbL-0950_RLatLon0.09_PT006H.grib2 2026-05-04 02:42 1.0M
20260504T00Z_MSC_RDPS_RelativeHumidity_IsbL-0970_RLatLon0.09_PT006H.grib2 2026-05-04 02:42 1.0M
20260504T00Z_MSC_RDPS_RelativeHumidity_IsbL-0985_RLatLon0.09_PT006H.grib2 2026-05-04 02:42 1.0M
20260504T00Z_MSC_RDPS_RelativeHumidity_IsbL-1000_RLatLon0.09_PT006H.grib2 2026-05-04 02:42 1.0M
20260504T00Z_MSC_RDPS_RelativeHumidity_IsbL-1015_RLatLon0.09_PT006H.grib2 2026-05-04 02:42 1.0M
20260504T00Z_MSC_RDPS_Runoff-Accum_Sfc_RLatLon0.09_PT006H.grib2 2026-05-04 02:42 56K
20260504T00Z_MSC_RDPS_SWEATIndex_Sfc_RLatLon0.09_PT006H.grib2 2026-05-04 02:42 2.4M
20260504T00Z_MSC_RDPS_SeeingIndex_EAtm_RLatLon0.09_PT006H.grib2 2026-05-04 02:42 1.0M
20260504T00Z_MSC_RDPS_SensibleHeatNetFlux_Sfc_RLatLon0.09_PT006H.grib2 2026-05-04 02:42 293K
20260504T00Z_MSC_RDPS_ShowalterIndex_IsbL-0500_RLatLon0.09_PT006H.grib2 2026-05-04 02:42 2.6M
20260504T00Z_MSC_RDPS_SkyTransparencyIndex_EAtm_RLatLon0.09_PT006H.grib2 2026-05-04 02:42 706K
20260504T00Z_MSC_RDPS_Snow-Accum1h_Sfc_RLatLon0.09_PT006H.grib2 2026-05-04 02:42 497K
20260504T00Z_MSC_RDPS_Snow-Accum3h_Sfc_RLatLon0.09_PT006H.grib2 2026-05-04 02:42 427K
20260504T00Z_MSC_RDPS_Snow-Accum6h_Sfc_RLatLon0.09_PT006H.grib2 2026-05-04 02:42 546K
20260504T00Z_MSC_RDPS_Snow-Accum_Sfc_RLatLon0.09_PT006H.grib2 2026-05-04 02:42 602K
20260504T00Z_MSC_RDPS_SnowDensity_Sfc_RLatLon0.09_PT006H.grib2 2026-05-04 02:42 163K
20260504T00Z_MSC_RDPS_SnowDepth_Sfc_RLatLon0.09_PT006H.grib2 2026-05-04 02:42 641K
20260504T00Z_MSC_RDPS_SoilTemp_DBS-0to10cm_RLatLon0.09_PT006H.grib2 2026-05-04 02:42 202K
20260504T00Z_MSC_RDPS_SoilTemp_Sfc_RLatLon0.09_PT006H.grib2 2026-05-04 02:42 263K
20260504T00Z_MSC_RDPS_SoilVolumetricIceContent_Sfc_RLatLon0.09_PT006H.grib2 2026-05-04 02:42 155K
20260504T00Z_MSC_RDPS_SoilVolumetricWaterContent_DBS-0to10cm_RLatLon0.09_PT006H.grib2 2026-05-04 02:42 274K
20260504T00Z_MSC_RDPS_SoilVolumetricWaterContent_DBS-0to1cm_RLatLon0.09_PT006H.grib2 2026-05-04 02:42 334K
20260504T00Z_MSC_RDPS_SpecificHumidity_AGL-120m_RLatLon0.09_PT006H.grib2 2026-05-04 02:42 479K
20260504T00Z_MSC_RDPS_SpecificHumidity_AGL-2m_RLatLon0.09_PT006H.grib2 2026-05-04 02:42 646K
20260504T00Z_MSC_RDPS_SpecificHumidity_AGL-40m_RLatLon0.09_PT006H.grib2 2026-05-04 02:42 486K
20260504T00Z_MSC_RDPS_SpecificHumidity_AGL-80m_RLatLon0.09_PT006H.grib2 2026-05-04 02:42 481K
20260504T00Z_MSC_RDPS_SpecificHumidity_IsbL-0001_RLatLon0.09_PT006H.grib2 2026-05-04 02:42 390K
20260504T00Z_MSC_RDPS_SpecificHumidity_IsbL-0005_RLatLon0.09_PT006H.grib2 2026-05-04 02:42 365K
20260504T00Z_MSC_RDPS_SpecificHumidity_IsbL-0010_RLatLon0.09_PT006H.grib2 2026-05-04 02:42 397K
20260504T00Z_MSC_RDPS_SpecificHumidity_IsbL-0020_RLatLon0.09_PT006H.grib2 2026-05-04 02:42 379K
20260504T00Z_MSC_RDPS_SpecificHumidity_IsbL-0030_RLatLon0.09_PT006H.grib2 2026-05-04 02:42 374K
20260504T00Z_MSC_RDPS_SpecificHumidity_IsbL-0050_RLatLon0.09_PT006H.grib2 2026-05-04 02:42 375K
20260504T00Z_MSC_RDPS_SpecificHumidity_IsbL-0100_RLatLon0.09_PT006H.grib2 2026-05-04 02:42 421K
20260504T00Z_MSC_RDPS_SpecificHumidity_IsbL-0150_RLatLon0.09_PT006H.grib2 2026-05-04 02:42 451K
20260504T00Z_MSC_RDPS_SpecificHumidity_IsbL-0175_RLatLon0.09_PT006H.grib2 2026-05-04 02:42 441K
20260504T00Z_MSC_RDPS_SpecificHumidity_IsbL-0200_RLatLon0.09_PT006H.grib2 2026-05-04 02:42 462K
20260504T00Z_MSC_RDPS_SpecificHumidity_IsbL-0225_RLatLon0.09_PT006H.grib2 2026-05-04 02:42 467K
20260504T00Z_MSC_RDPS_SpecificHumidity_IsbL-0250_RLatLon0.09_PT006H.grib2 2026-05-04 02:42 575K
20260504T00Z_MSC_RDPS_SpecificHumidity_IsbL-0275_RLatLon0.09_PT006H.grib2 2026-05-04 02:42 491K
20260504T00Z_MSC_RDPS_SpecificHumidity_IsbL-0300_RLatLon0.09_PT006H.grib2 2026-05-04 02:42 458K
20260504T00Z_MSC_RDPS_SpecificHumidity_IsbL-0350_RLatLon0.09_PT006H.grib2 2026-05-04 02:42 451K
20260504T00Z_MSC_RDPS_SpecificHumidity_IsbL-0400_RLatLon0.09_PT006H.grib2 2026-05-04 02:42 527K
20260504T00Z_MSC_RDPS_SpecificHumidity_IsbL-0450_RLatLon0.09_PT006H.grib2 2026-05-04 02:42 570K
20260504T00Z_MSC_RDPS_SpecificHumidity_IsbL-0500_RLatLon0.09_PT006H.grib2 2026-05-04 02:42 503K
20260504T00Z_MSC_RDPS_SpecificHumidity_IsbL-0550_RLatLon0.09_PT006H.grib2 2026-05-04 02:42 575K
20260504T00Z_MSC_RDPS_SpecificHumidity_IsbL-0600_RLatLon0.09_PT006H.grib2 2026-05-04 02:42 625K
20260504T00Z_MSC_RDPS_SpecificHumidity_IsbL-0650_RLatLon0.09_PT006H.grib2 2026-05-04 02:42 543K
20260504T00Z_MSC_RDPS_SpecificHumidity_IsbL-0700_RLatLon0.09_PT006H.grib2 2026-05-04 02:42 583K
20260504T00Z_MSC_RDPS_SpecificHumidity_IsbL-0750_RLatLon0.09_PT006H.grib2 2026-05-04 02:42 634K
20260504T00Z_MSC_RDPS_SpecificHumidity_IsbL-0800_RLatLon0.09_PT006H.grib2 2026-05-04 02:42 712K
20260504T00Z_MSC_RDPS_SpecificHumidity_IsbL-0850_RLatLon0.09_PT006H.grib2 2026-05-04 02:42 798K
20260504T00Z_MSC_RDPS_SpecificHumidity_IsbL-0875_RLatLon0.09_PT006H.grib2 2026-05-04 02:42 820K
20260504T00Z_MSC_RDPS_SpecificHumidity_IsbL-0900_RLatLon0.09_PT006H.grib2 2026-05-04 02:42 829K
20260504T00Z_MSC_RDPS_SpecificHumidity_IsbL-0925_RLatLon0.09_PT006H.grib2 2026-05-04 02:42 829K
20260504T00Z_MSC_RDPS_SpecificHumidity_IsbL-0950_RLatLon0.09_PT006H.grib2 2026-05-04 02:42 833K
20260504T00Z_MSC_RDPS_SpecificHumidity_IsbL-0970_RLatLon0.09_PT006H.grib2 2026-05-04 02:42 684K
20260504T00Z_MSC_RDPS_SpecificHumidity_IsbL-0985_RLatLon0.09_PT006H.grib2 2026-05-04 02:42 677K
20260504T00Z_MSC_RDPS_SpecificHumidity_IsbL-1000_RLatLon0.09_PT006H.grib2 2026-05-04 02:42 669K
20260504T00Z_MSC_RDPS_SpecificHumidity_IsbL-1015_RLatLon0.09_PT006H.grib2 2026-05-04 02:42 658K
20260504T00Z_MSC_RDPS_SpecificHumidity_Sfc_RLatLon0.09_PT006H.grib2 2026-05-04 02:42 290K
20260504T00Z_MSC_RDPS_StormRelativeHelicity_EtaL-10000_RLatLon0.09_PT006H.grib2 2026-05-04 02:42 1.1M
20260504T00Z_MSC_RDPS_StormSeverityIndex_EtaL-10000_RLatLon0.09_PT006H.grib2 2026-05-04 02:42 1.2M
20260504T00Z_MSC_RDPS_Thickness_IsbL-0850to0700_RLatLon0.09_PT006H.grib2 2026-05-04 02:42 177K
20260504T00Z_MSC_RDPS_Thickness_IsbL-1000to0500_RLatLon0.09_PT006H.grib2 2026-05-04 02:42 195K
20260504T00Z_MSC_RDPS_Thickness_IsbL-1000to0850_RLatLon0.09_PT006H.grib2 2026-05-04 02:42 260K
20260504T00Z_MSC_RDPS_TotalCloudCover_Sfc_RLatLon0.09_PT006H.grib2 2026-05-04 02:42 661K
20260504T00Z_MSC_RDPS_TotalTotalsIndex_Sfc_RLatLon0.09_PT006H.grib2 2026-05-04 02:42 2.4M
20260504T00Z_MSC_RDPS_UVIndex-ClearSky_Sfc_RLatLon0.09_PT006H.grib2 2026-05-04 02:42 127K
20260504T00Z_MSC_RDPS_UVIndex_Sfc_RLatLon0.09_PT006H.grib2 2026-05-04 02:42 211K
20260504T00Z_MSC_RDPS_UpwardLongwaveRadiationFlux_NTAtm_RLatLon0.09_PT006H.grib2 2026-05-04 02:42 492K
20260504T00Z_MSC_RDPS_UpwardShortwaveRadiationFlux_NTAtm_RLatLon0.09_PT006H.grib2 2026-05-04 02:42 143K
20260504T00Z_MSC_RDPS_VerticalVelocity_IsbL-0250_RLatLon0.09_PT006H.grib2 2026-05-04 02:42 458K
20260504T00Z_MSC_RDPS_VerticalVelocity_IsbL-0500_RLatLon0.09_PT006H.grib2 2026-05-04 02:42 547K
20260504T00Z_MSC_RDPS_VerticalVelocity_IsbL-0700_RLatLon0.09_PT006H.grib2 2026-05-04 02:42 599K
20260504T00Z_MSC_RDPS_VerticalVelocity_IsbL-0850_RLatLon0.09_PT006H.grib2 2026-05-04 02:42 707K
20260504T00Z_MSC_RDPS_VerticalWindShear_EtaL-6500_RLatLon0.09_PT006H.grib2 2026-05-04 02:42 1.2M
20260504T00Z_MSC_RDPS_WindChill_Sfc_RLatLon0.09_PT006H.grib2 2026-05-04 02:42 1.1M
20260504T00Z_MSC_RDPS_WindDir_AGL-10m_RLatLon0.09_PT006H.grib2 2026-05-04 02:42 971K
20260504T00Z_MSC_RDPS_WindDir_AGL-120m_RLatLon0.09_PT006H.grib2 2026-05-04 02:42 603K
20260504T00Z_MSC_RDPS_WindDir_AGL-40m_RLatLon0.09_PT006H.grib2 2026-05-04 02:42 637K
20260504T00Z_MSC_RDPS_WindDir_AGL-80m_RLatLon0.09_PT006H.grib2 2026-05-04 02:42 617K
20260504T00Z_MSC_RDPS_WindDir_IsbL-0001_RLatLon0.09_PT006H.grib2 2026-05-04 02:42 297K
20260504T00Z_MSC_RDPS_WindDir_IsbL-0005_RLatLon0.09_PT006H.grib2 2026-05-04 02:42 367K
20260504T00Z_MSC_RDPS_WindDir_IsbL-0010_RLatLon0.09_PT006H.grib2 2026-05-04 02:42 373K
20260504T00Z_MSC_RDPS_WindDir_IsbL-0020_RLatLon0.09_PT006H.grib2 2026-05-04 02:42 412K
20260504T00Z_MSC_RDPS_WindDir_IsbL-0030_RLatLon0.09_PT006H.grib2 2026-05-04 02:42 411K
20260504T00Z_MSC_RDPS_WindDir_IsbL-0050_RLatLon0.09_PT006H.grib2 2026-05-04 02:42 405K
20260504T00Z_MSC_RDPS_WindDir_IsbL-0100_RLatLon0.09_PT006H.grib2 2026-05-04 02:42 400K
20260504T00Z_MSC_RDPS_WindDir_IsbL-0150_RLatLon0.09_PT006H.grib2 2026-05-04 02:42 415K
20260504T00Z_MSC_RDPS_WindDir_IsbL-0175_RLatLon0.09_PT006H.grib2 2026-05-04 02:42 432K
20260504T00Z_MSC_RDPS_WindDir_IsbL-0200_RLatLon0.09_PT006H.grib2 2026-05-04 02:42 445K
20260504T00Z_MSC_RDPS_WindDir_IsbL-0225_RLatLon0.09_PT006H.grib2 2026-05-04 02:42 452K
20260504T00Z_MSC_RDPS_WindDir_IsbL-0250_RLatLon0.09_PT006H.grib2 2026-05-04 02:42 455K
20260504T00Z_MSC_RDPS_WindDir_IsbL-0275_RLatLon0.09_PT006H.grib2 2026-05-04 02:42 476K
20260504T00Z_MSC_RDPS_WindDir_IsbL-0300_RLatLon0.09_PT006H.grib2 2026-05-04 02:42 469K
20260504T00Z_MSC_RDPS_WindDir_IsbL-0350_RLatLon0.09_PT006H.grib2 2026-05-04 02:42 491K
20260504T00Z_MSC_RDPS_WindDir_IsbL-0400_RLatLon0.09_PT006H.grib2 2026-05-04 02:42 520K
20260504T00Z_MSC_RDPS_WindDir_IsbL-0450_RLatLon0.09_PT006H.grib2 2026-05-04 02:42 526K
20260504T00Z_MSC_RDPS_WindDir_IsbL-0500_RLatLon0.09_PT006H.grib2 2026-05-04 02:42 530K
20260504T00Z_MSC_RDPS_WindDir_IsbL-0550_RLatLon0.09_PT006H.grib2 2026-05-04 02:42 547K
20260504T00Z_MSC_RDPS_WindDir_IsbL-0600_RLatLon0.09_PT006H.grib2 2026-05-04 02:42 576K
20260504T00Z_MSC_RDPS_WindDir_IsbL-0650_RLatLon0.09_PT006H.grib2 2026-05-04 02:42 610K
20260504T00Z_MSC_RDPS_WindDir_IsbL-0700_RLatLon0.09_PT006H.grib2 2026-05-04 02:42 652K
20260504T00Z_MSC_RDPS_WindDir_IsbL-0750_RLatLon0.09_PT006H.grib2 2026-05-04 02:42 697K
20260504T00Z_MSC_RDPS_WindDir_IsbL-0800_RLatLon0.09_PT006H.grib2 2026-05-04 02:42 772K
20260504T00Z_MSC_RDPS_WindDir_IsbL-0850_RLatLon0.09_PT006H.grib2 2026-05-04 02:42 859K
20260504T00Z_MSC_RDPS_WindDir_IsbL-0875_RLatLon0.09_PT006H.grib2 2026-05-04 02:42 889K
20260504T00Z_MSC_RDPS_WindDir_IsbL-0900_RLatLon0.09_PT006H.grib2 2026-05-04 02:42 902K
20260504T00Z_MSC_RDPS_WindDir_IsbL-0925_RLatLon0.09_PT006H.grib2 2026-05-04 02:42 913K
20260504T00Z_MSC_RDPS_WindDir_IsbL-0950_RLatLon0.09_PT006H.grib2 2026-05-04 02:42 913K
20260504T00Z_MSC_RDPS_WindDir_IsbL-0970_RLatLon0.09_PT006H.grib2 2026-05-04 02:42 919K
20260504T00Z_MSC_RDPS_WindDir_IsbL-0985_RLatLon0.09_PT006H.grib2 2026-05-04 02:42 926K
20260504T00Z_MSC_RDPS_WindDir_IsbL-1000_RLatLon0.09_PT006H.grib2 2026-05-04 02:42 945K
20260504T00Z_MSC_RDPS_WindDir_IsbL-1015_RLatLon0.09_PT006H.grib2 2026-05-04 02:42 961K
20260504T00Z_MSC_RDPS_WindGust-Max_AGL-10m_RLatLon0.09_PT006H.grib2 2026-05-04 02:42 1.0M
20260504T00Z_MSC_RDPS_WindGust-Min_AGL-10m_RLatLon0.09_PT006H.grib2 2026-05-04 02:42 970K
20260504T00Z_MSC_RDPS_WindGust_AGL-10m_RLatLon0.09_PT006H.grib2 2026-05-04 02:42 1.0M
20260504T00Z_MSC_RDPS_WindSpeed_AGL-10m_RLatLon0.09_PT006H.grib2 2026-05-04 02:42 837K
20260504T00Z_MSC_RDPS_WindSpeed_AGL-120m_RLatLon0.09_PT006H.grib2 2026-05-04 02:42 537K
20260504T00Z_MSC_RDPS_WindSpeed_AGL-40m_RLatLon0.09_PT006H.grib2 2026-05-04 02:42 541K
20260504T00Z_MSC_RDPS_WindSpeed_AGL-80m_RLatLon0.09_PT006H.grib2 2026-05-04 02:42 538K
20260504T00Z_MSC_RDPS_WindSpeed_IsbL-0001_RLatLon0.09_PT006H.grib2 2026-05-04 02:42 327K
20260504T00Z_MSC_RDPS_WindSpeed_IsbL-0005_RLatLon0.09_PT006H.grib2 2026-05-04 02:42 370K
20260504T00Z_MSC_RDPS_WindSpeed_IsbL-0010_RLatLon0.09_PT006H.grib2 2026-05-04 02:42 347K
20260504T00Z_MSC_RDPS_WindSpeed_IsbL-0020_RLatLon0.09_PT006H.grib2 2026-05-04 02:42 403K
20260504T00Z_MSC_RDPS_WindSpeed_IsbL-0030_RLatLon0.09_PT006H.grib2 2026-05-04 02:42 312K
20260504T00Z_MSC_RDPS_WindSpeed_IsbL-0050_RLatLon0.09_PT006H.grib2 2026-05-04 02:42 343K
20260504T00Z_MSC_RDPS_WindSpeed_IsbL-0100_RLatLon0.09_PT006H.grib2 2026-05-04 02:42 437K
20260504T00Z_MSC_RDPS_WindSpeed_IsbL-0150_RLatLon0.09_PT006H.grib2 2026-05-04 02:42 381K
20260504T00Z_MSC_RDPS_WindSpeed_IsbL-0175_RLatLon0.09_PT006H.grib2 2026-05-04 02:42 428K
20260504T00Z_MSC_RDPS_WindSpeed_IsbL-0200_RLatLon0.09_PT006H.grib2 2026-05-04 02:42 443K
20260504T00Z_MSC_RDPS_WindSpeed_IsbL-0225_RLatLon0.09_PT006H.grib2 2026-05-04 02:42 451K
20260504T00Z_MSC_RDPS_WindSpeed_IsbL-0250_RLatLon0.09_PT006H.grib2 2026-05-04 02:42 456K
20260504T00Z_MSC_RDPS_WindSpeed_IsbL-0275_RLatLon0.09_PT006H.grib2 2026-05-04 02:42 474K
20260504T00Z_MSC_RDPS_WindSpeed_IsbL-0300_RLatLon0.09_PT006H.grib2 2026-05-04 02:42 468K
20260504T00Z_MSC_RDPS_WindSpeed_IsbL-0350_RLatLon0.09_PT006H.grib2 2026-05-04 02:42 477K
20260504T00Z_MSC_RDPS_WindSpeed_IsbL-0400_RLatLon0.09_PT006H.grib2 2026-05-04 02:42 484K
20260504T00Z_MSC_RDPS_WindSpeed_IsbL-0450_RLatLon0.09_PT006H.grib2 2026-05-04 02:42 468K
20260504T00Z_MSC_RDPS_WindSpeed_IsbL-0500_RLatLon0.09_PT006H.grib2 2026-05-04 02:42 466K
20260504T00Z_MSC_RDPS_WindSpeed_IsbL-0550_RLatLon0.09_PT006H.grib2 2026-05-04 02:42 584K
20260504T00Z_MSC_RDPS_WindSpeed_IsbL-0600_RLatLon0.09_PT006H.grib2 2026-05-04 02:42 591K
20260504T00Z_MSC_RDPS_WindSpeed_IsbL-0650_RLatLon0.09_PT006H.grib2 2026-05-04 02:42 610K
20260504T00Z_MSC_RDPS_WindSpeed_IsbL-0700_RLatLon0.09_PT006H.grib2 2026-05-04 02:42 634K
20260504T00Z_MSC_RDPS_WindSpeed_IsbL-0750_RLatLon0.09_PT006H.grib2 2026-05-04 02:42 709K
20260504T00Z_MSC_RDPS_WindSpeed_IsbL-0800_RLatLon0.09_PT006H.grib2 2026-05-04 02:42 762K
20260504T00Z_MSC_RDPS_WindSpeed_IsbL-0850_RLatLon0.09_PT006H.grib2 2026-05-04 02:42 822K
20260504T00Z_MSC_RDPS_WindSpeed_IsbL-0875_RLatLon0.09_PT006H.grib2 2026-05-04 02:42 842K
20260504T00Z_MSC_RDPS_WindSpeed_IsbL-0900_RLatLon0.09_PT006H.grib2 2026-05-04 02:42 852K
20260504T00Z_MSC_RDPS_WindSpeed_IsbL-0925_RLatLon0.09_PT006H.grib2 2026-05-04 02:42 864K
20260504T00Z_MSC_RDPS_WindSpeed_IsbL-0950_RLatLon0.09_PT006H.grib2 2026-05-04 02:42 865K
20260504T00Z_MSC_RDPS_WindSpeed_IsbL-0970_RLatLon0.09_PT006H.grib2 2026-05-04 02:42 866K
20260504T00Z_MSC_RDPS_WindSpeed_IsbL-0985_RLatLon0.09_PT006H.grib2 2026-05-04 02:42 853K
20260504T00Z_MSC_RDPS_WindSpeed_IsbL-1000_RLatLon0.09_PT006H.grib2 2026-05-04 02:42 847K
20260504T00Z_MSC_RDPS_WindSpeed_IsbL-1015_RLatLon0.09_PT006H.grib2 2026-05-04 02:42 836K
20260504T00Z_MSC_RDPS_WindU_AGL-10m_RLatLon0.09_PT006H.grib2 2026-05-04 02:42 430K
20260504T00Z_MSC_RDPS_WindU_AGL-120m_RLatLon0.09_PT006H.grib2 2026-05-04 02:42 417K
20260504T00Z_MSC_RDPS_WindU_AGL-40m_RLatLon0.09_PT006H.grib2 2026-05-04 02:42 536K
20260504T00Z_MSC_RDPS_WindU_AGL-80m_RLatLon0.09_PT006H.grib2 2026-05-04 02:42 419K
20260504T00Z_MSC_RDPS_WindU_IsbL-0001_RLatLon0.09_PT006H.grib2 2026-05-04 02:42 239K
20260504T00Z_MSC_RDPS_WindU_IsbL-0005_RLatLon0.09_PT006H.grib2 2026-05-04 02:42 274K
20260504T00Z_MSC_RDPS_WindU_IsbL-0010_RLatLon0.09_PT006H.grib2 2026-05-04 02:42 285K
20260504T00Z_MSC_RDPS_WindU_IsbL-0020_RLatLon0.09_PT006H.grib2 2026-05-04 02:42 342K
20260504T00Z_MSC_RDPS_WindU_IsbL-0030_RLatLon0.09_PT006H.grib2 2026-05-04 02:42 345K
20260504T00Z_MSC_RDPS_WindU_IsbL-0050_RLatLon0.09_PT006H.grib2 2026-05-04 02:42 372K
20260504T00Z_MSC_RDPS_WindU_IsbL-0100_RLatLon0.09_PT006H.grib2 2026-05-04 02:42 428K
20260504T00Z_MSC_RDPS_WindU_IsbL-0150_RLatLon0.09_PT006H.grib2 2026-05-04 02:42 397K
20260504T00Z_MSC_RDPS_WindU_IsbL-0175_RLatLon0.09_PT006H.grib2 2026-05-04 02:42 420K
20260504T00Z_MSC_RDPS_WindU_IsbL-0200_RLatLon0.09_PT006H.grib2 2026-05-04 02:42 337K
20260504T00Z_MSC_RDPS_WindU_IsbL-0225_RLatLon0.09_PT006H.grib2 2026-05-04 02:42 343K
20260504T00Z_MSC_RDPS_WindU_IsbL-0250_RLatLon0.09_PT006H.grib2 2026-05-04 02:42 346K
20260504T00Z_MSC_RDPS_WindU_IsbL-0275_RLatLon0.09_PT006H.grib2 2026-05-04 02:42 360K
20260504T00Z_MSC_RDPS_WindU_IsbL-0300_RLatLon0.09_PT006H.grib2 2026-05-04 02:42 455K
20260504T00Z_MSC_RDPS_WindU_IsbL-0350_RLatLon0.09_PT006H.grib2 2026-05-04 02:42 464K
20260504T00Z_MSC_RDPS_WindU_IsbL-0400_RLatLon0.09_PT006H.grib2 2026-05-04 02:42 472K
20260504T00Z_MSC_RDPS_WindU_IsbL-0450_RLatLon0.09_PT006H.grib2 2026-05-04 02:42 473K
20260504T00Z_MSC_RDPS_WindU_IsbL-0500_RLatLon0.09_PT006H.grib2 2026-05-04 02:42 472K
20260504T00Z_MSC_RDPS_WindU_IsbL-0550_RLatLon0.09_PT006H.grib2 2026-05-04 02:42 474K
20260504T00Z_MSC_RDPS_WindU_IsbL-0600_RLatLon0.09_PT006H.grib2 2026-05-04 02:42 465K
20260504T00Z_MSC_RDPS_WindU_IsbL-0650_RLatLon0.09_PT006H.grib2 2026-05-04 02:42 482K
20260504T00Z_MSC_RDPS_WindU_IsbL-0700_RLatLon0.09_PT006H.grib2 2026-05-04 02:42 504K
20260504T00Z_MSC_RDPS_WindU_IsbL-0750_RLatLon0.09_PT006H.grib2 2026-05-04 02:42 531K
20260504T00Z_MSC_RDPS_WindU_IsbL-0800_RLatLon0.09_PT006H.grib2 2026-05-04 02:42 588K
20260504T00Z_MSC_RDPS_WindU_IsbL-0850_RLatLon0.09_PT006H.grib2 2026-05-04 02:42 639K
20260504T00Z_MSC_RDPS_WindU_IsbL-0875_RLatLon0.09_PT006H.grib2 2026-05-04 02:42 655K
20260504T00Z_MSC_RDPS_WindU_IsbL-0900_RLatLon0.09_PT006H.grib2 2026-05-04 02:42 661K
20260504T00Z_MSC_RDPS_WindU_IsbL-0925_RLatLon0.09_PT006H.grib2 2026-05-04 02:42 659K
20260504T00Z_MSC_RDPS_WindU_IsbL-0950_RLatLon0.09_PT006H.grib2 2026-05-04 02:42 657K
20260504T00Z_MSC_RDPS_WindU_IsbL-0970_RLatLon0.09_PT006H.grib2 2026-05-04 02:42 654K
20260504T00Z_MSC_RDPS_WindU_IsbL-0985_RLatLon0.09_PT006H.grib2 2026-05-04 02:42 648K
20260504T00Z_MSC_RDPS_WindU_IsbL-1000_RLatLon0.09_PT006H.grib2 2026-05-04 02:42 782K
20260504T00Z_MSC_RDPS_WindU_IsbL-1015_RLatLon0.09_PT006H.grib2 2026-05-04 02:42 775K
20260504T00Z_MSC_RDPS_WindV_AGL-10m_RLatLon0.09_PT006H.grib2 2026-05-04 02:42 432K
20260504T00Z_MSC_RDPS_WindV_AGL-120m_RLatLon0.09_PT006H.grib2 2026-05-04 02:42 418K
20260504T00Z_MSC_RDPS_WindV_AGL-40m_RLatLon0.09_PT006H.grib2 2026-05-04 02:42 538K
20260504T00Z_MSC_RDPS_WindV_AGL-80m_RLatLon0.09_PT006H.grib2 2026-05-04 02:42 420K
20260504T00Z_MSC_RDPS_WindV_IsbL-0001_RLatLon0.09_PT006H.grib2 2026-05-04 02:42 242K
20260504T00Z_MSC_RDPS_WindV_IsbL-0005_RLatLon0.09_PT006H.grib2 2026-05-04 02:42 277K
20260504T00Z_MSC_RDPS_WindV_IsbL-0010_RLatLon0.09_PT006H.grib2 2026-05-04 02:42 286K
20260504T00Z_MSC_RDPS_WindV_IsbL-0020_RLatLon0.09_PT006H.grib2 2026-05-04 02:42 303K
20260504T00Z_MSC_RDPS_WindV_IsbL-0030_RLatLon0.09_PT006H.grib2 2026-05-04 02:42 305K
20260504T00Z_MSC_RDPS_WindV_IsbL-0050_RLatLon0.09_PT006H.grib2 2026-05-04 02:42 335K
20260504T00Z_MSC_RDPS_WindV_IsbL-0100_RLatLon0.09_PT006H.grib2 2026-05-04 02:42 333K
20260504T00Z_MSC_RDPS_WindV_IsbL-0150_RLatLon0.09_PT006H.grib2 2026-05-04 02:42 398K
20260504T00Z_MSC_RDPS_WindV_IsbL-0175_RLatLon0.09_PT006H.grib2 2026-05-04 02:42 326K
20260504T00Z_MSC_RDPS_WindV_IsbL-0200_RLatLon0.09_PT006H.grib2 2026-05-04 02:42 338K
20260504T00Z_MSC_RDPS_WindV_IsbL-0225_RLatLon0.09_PT006H.grib2 2026-05-04 02:42 369K
20260504T00Z_MSC_RDPS_WindV_IsbL-0250_RLatLon0.09_PT006H.grib2 2026-05-04 02:42 372K
20260504T00Z_MSC_RDPS_WindV_IsbL-0275_RLatLon0.09_PT006H.grib2 2026-05-04 02:42 385K
20260504T00Z_MSC_RDPS_WindV_IsbL-0300_RLatLon0.09_PT006H.grib2 2026-05-04 02:42 380K
20260504T00Z_MSC_RDPS_WindV_IsbL-0350_RLatLon0.09_PT006H.grib2 2026-05-04 02:42 385K
20260504T00Z_MSC_RDPS_WindV_IsbL-0400_RLatLon0.09_PT006H.grib2 2026-05-04 02:42 366K
20260504T00Z_MSC_RDPS_WindV_IsbL-0450_RLatLon0.09_PT006H.grib2 2026-05-04 02:42 369K
20260504T00Z_MSC_RDPS_WindV_IsbL-0500_RLatLon0.09_PT006H.grib2 2026-05-04 02:42 368K
20260504T00Z_MSC_RDPS_WindV_IsbL-0550_RLatLon0.09_PT006H.grib2 2026-05-04 02:42 472K
20260504T00Z_MSC_RDPS_WindV_IsbL-0600_RLatLon0.09_PT006H.grib2 2026-05-04 02:42 479K
20260504T00Z_MSC_RDPS_WindV_IsbL-0650_RLatLon0.09_PT006H.grib2 2026-05-04 02:42 495K
20260504T00Z_MSC_RDPS_WindV_IsbL-0700_RLatLon0.09_PT006H.grib2 2026-05-04 02:42 515K
20260504T00Z_MSC_RDPS_WindV_IsbL-0750_RLatLon0.09_PT006H.grib2 2026-05-04 02:42 540K
20260504T00Z_MSC_RDPS_WindV_IsbL-0800_RLatLon0.09_PT006H.grib2 2026-05-04 02:42 585K
20260504T00Z_MSC_RDPS_WindV_IsbL-0850_RLatLon0.09_PT006H.grib2 2026-05-04 02:42 636K
20260504T00Z_MSC_RDPS_WindV_IsbL-0875_RLatLon0.09_PT006H.grib2 2026-05-04 02:42 653K
20260504T00Z_MSC_RDPS_WindV_IsbL-0900_RLatLon0.09_PT006H.grib2 2026-05-04 02:42 660K
20260504T00Z_MSC_RDPS_WindV_IsbL-0925_RLatLon0.09_PT006H.grib2 2026-05-04 02:42 660K
20260504T00Z_MSC_RDPS_WindV_IsbL-0950_RLatLon0.09_PT006H.grib2 2026-05-04 02:42 659K
20260504T00Z_MSC_RDPS_WindV_IsbL-0970_RLatLon0.09_PT006H.grib2 2026-05-04 02:42 657K
20260504T00Z_MSC_RDPS_WindV_IsbL-0985_RLatLon0.09_PT006H.grib2 2026-05-04 02:42 651K
20260504T00Z_MSC_RDPS_WindV_IsbL-1000_RLatLon0.09_PT006H.grib2 2026-05-04 02:42 785K
20260504T00Z_MSC_RDPS_WindV_IsbL-1015_RLatLon0.09_PT006H.grib2 2026-05-04 02:42 777K